Cape May, NJ

6:50 PM EST on December 09, 2016 (GMT -0500)
Cape May County

Weather History for KWWD - April, 2014

Change the Weather History Date:

Thursday, April 10, 2014

  Actual Average Record
Temperature  
Mean Temperature 52 °F -  
Max Temperature 59 °F 57 °F 86 °F (2013)
Min Temperature 44 °F 42 °F 30 °F (1997)
Degree Days  
Heating Degree Days 14    
Growing Degree Days 2 (Base 50)    
Moisture  
Dew Point 32 °F    
Average Humidity 48    
Maximum Humidity 66    
Minimum Humidity 33    
Precipitation  
Precipitation 0.00 in - - ()
Sea Level Pressure  
Sea Level Pressure 30.17 in    
Wind  
Wind Speed 10 mph (SE)    
Max Wind Speed 20 mph    
Max Gust Speed 26 mph    
Visibility 10 miles    
Events      
Averages and records for this station are not official NWS values.
T = Trace of Precipitation, MM = Missing Value Source: NWS Daily Summary

Daily Weather History Graph

Daily Weather History Graph

Search for Another Location

Airport or City:

Trip Planner

Search our weather history database for the weather conditions in past years. The results will help you decide how hot, cold, wet, or windy it might be!

Date:

Astronomy

Apr. 10, 2014 Rise Set
Actual Time 6:30 AM EDT 7:32 PM EDT
Civil Twilight 6:03 AM EDT 7:59 PM EDT
Nautical Twilight 5:30 AM EDT 8:31 PM EDT
Astronomical Twilight 4:56 AM EDT 9:05 PM EDT
Moon 3:15 PM EDT (4/10) 3:49 AM EDT (4/10)
Length of Visible Light 13h 56m
Length of Day
13h 01m
Waxing Gibbous, 79% of the Moon is Illuminated
Apr 10
Waxing Gibbous
Apr 15
Full
Apr 22
Last Quarter
Apr 29
New
May 6
First Quarter

Hourly Weather History & Observations

Time (EDT) Temp. Windchill Dew Point Humidity Pressure Visibility Wind Dir Wind Speed Gust Speed Precip Events Conditions
12:15 AM 48.2 °F - 33.8 °F 58% 30.05 in 10.0 mi NE 5.8 mph - N/A   Clear
12:35 AM 48.2 °F - 32.0 °F 54% 30.06 in 10.0 mi NE 6.9 mph - N/A   Clear
12:55 AM 48.2 °F - 32.0 °F 54% 30.07 in 10.0 mi North 5.8 mph - N/A   Clear
1:15 AM 48.2 °F - 30.2 °F 50% 30.08 in 10.0 mi NE 4.6 mph - N/A   Clear
1:35 AM 44.6 °F 40.7 °F 32.0 °F 61% 30.09 in 10.0 mi NNE 6.9 mph - N/A   Clear
1:55 AM 44.6 °F 41.4 °F 32.0 °F 61% 30.09 in 10.0 mi NE 5.8 mph - N/A   Clear
2:15 AM 46.4 °F 43.5 °F 32.0 °F 57% 30.09 in 10.0 mi ENE 5.8 mph - N/A   Clear
2:35 AM 48.2 °F - 33.8 °F 58% 30.10 in 10.0 mi East 5.8 mph - N/A   Clear
2:55 AM 46.4 °F 43.5 °F 33.8 °F 62% 30.10 in 10.0 mi East 5.8 mph - N/A   Clear
3:15 AM 46.4 °F 43.5 °F 32.0 °F 57% 30.11 in 10.0 mi East 5.8 mph - N/A   Clear
3:35 AM 46.4 °F 43.5 °F 32.0 °F 57% 30.12 in 10.0 mi ENE 5.8 mph - N/A   Clear
3:55 AM 46.4 °F 43.5 °F 33.8 °F 62% 30.12 in 10.0 mi East 5.8 mph - N/A   Clear
4:15 AM 46.4 °F 44.3 °F 32.0 °F 57% 30.13 in 10.0 mi East 4.6 mph - N/A   Clear
4:35 AM 46.4 °F 44.3 °F 32.0 °F 57% 30.13 in 10.0 mi East 4.6 mph - N/A   Clear
4:55 AM 44.6 °F 43.1 °F 32.0 °F 61% 30.14 in 10.0 mi East 3.5 mph - N/A   Clear
5:15 AM 44.6 °F 40.7 °F 30.2 °F 57% 30.15 in 10.0 mi ESE 6.9 mph - N/A   Clear
5:35 AM 44.6 °F 41.4 °F 30.2 °F 57% 30.16 in 10.0 mi East 5.8 mph - N/A   Clear
5:55 AM 44.6 °F 41.4 °F 30.2 °F 57% 30.17 in 10.0 mi ESE 5.8 mph - N/A   Clear
6:15 AM 44.6 °F 40.2 °F 30.2 °F 57% 30.17 in 10.0 mi ESE 8.1 mph - N/A   Clear
6:35 AM 44.6 °F 41.4 °F 28.4 °F 53% 30.18 in 10.0 mi ESE 5.8 mph - N/A   Clear
6:55 AM 44.6 °F 41.4 °F 28.4 °F 53% 30.20 in 10.0 mi ESE 5.8 mph - N/A   Clear
7:15 AM 44.6 °F 40.2 °F 32.0 °F 61% 30.21 in 10.0 mi ESE 8.1 mph - N/A   Clear
7:35 AM 44.6 °F 40.2 °F 33.8 °F 66% 30.22 in 10.0 mi ESE 8.1 mph - N/A   Clear
7:55 AM 46.4 °F 41.9 °F 33.8 °F 62% 30.22 in 10.0 mi ESE 9.2 mph - N/A   Clear
8:15 AM 48.2 °F - 30.2 °F 50% 30.23 in 10.0 mi ESE 9.2 mph - N/A   Clear
8:35 AM 48.2 °F - 28.4 °F 46% 30.24 in 10.0 mi SE 10.4 mph - N/A   Clear
8:55 AM 50.0 °F - 28.4 °F 43% 30.24 in 10.0 mi SE 9.2 mph - N/A   Clear
9:15 AM 51.8 °F - 28.4 °F 41% 30.25 in 10.0 mi SE 11.5 mph - N/A   Clear
9:35 AM 51.8 °F - 28.4 °F 41% 30.26 in 10.0 mi SSE 11.5 mph - N/A   Clear
9:55 AM 53.6 °F - 28.4 °F 38% 30.27 in 10.0 mi SSE 12.7 mph - N/A   Clear
10:15 AM 53.6 °F - 28.4 °F 38% 30.27 in 10.0 mi SE 11.5 mph - N/A   Clear
10:35 AM 53.6 °F - 30.2 °F 41% 30.27 in 10.0 mi SSE 12.7 mph - N/A   Clear
10:55 AM 53.6 °F - 30.2 °F 41% 30.28 in 10.0 mi SE 12.7 mph - N/A   Clear
11:15 AM 55.4 °F - 30.2 °F 38% 30.28 in 10.0 mi SSE 12.7 mph - N/A   Clear
11:35 AM 55.4 °F - 30.2 °F 38% 30.27 in 10.0 mi SSE 12.7 mph - N/A   Clear
11:55 AM 55.4 °F - 30.2 °F 38% 30.26 in 10.0 mi SSE 11.5 mph - N/A   Clear
12:15 PM 55.4 °F - 30.2 °F 38% 30.26 in 10.0 mi SSE 12.7 mph - N/A   Clear
12:35 PM 57.2 °F - 30.2 °F 36% 30.25 in 10.0 mi SSE 13.8 mph - N/A   Clear
12:55 PM 57.2 °F - 28.4 °F 33% 30.24 in 10.0 mi SSE 16.1 mph - N/A   Clear
1:15 PM 57.2 °F - 28.4 °F 33% 30.23 in 10.0 mi South 15.0 mph - N/A   Clear
1:35 PM 57.2 °F - 28.4 °F 33% 30.23 in 10.0 mi SSE 16.1 mph - N/A   Clear
1:55 PM 57.2 °F - 30.2 °F 36% 30.21 in 10.0 mi SSE 18.4 mph - N/A   Clear
2:15 PM 57.2 °F - 33.8 °F 41% 30.21 in 10.0 mi SSE 16.1 mph - N/A   Clear
2:35 PM 57.2 °F - 35.6 °F 44% 30.20 in 10.0 mi South 18.4 mph 21.9 mph N/A   Clear
2:55 PM 57.2 °F - 35.6 °F 44% 30.19 in 10.0 mi South 16.1 mph - N/A   Clear
3:15 PM 59.0 °F - 37.4 °F 45% 30.19 in 10.0 mi SSE 13.8 mph - N/A   Clear
3:35 PM 59.0 °F - 37.4 °F 45% 30.18 in 10.0 mi South 16.1 mph - N/A   Clear
3:55 PM 59.0 °F - 37.4 °F 45% 30.17 in 10.0 mi South 15.0 mph - N/A   Clear
4:15 PM 59.0 °F - 35.6 °F 42% 30.17 in 10.0 mi South 17.3 mph - N/A   Clear
4:35 PM 59.0 °F - 35.6 °F 42% 30.16 in 10.0 mi South 16.1 mph 21.9 mph N/A   Clear
4:55 PM 59.0 °F - 35.6 °F 42% 30.15 in 10.0 mi South 15.0 mph 19.6 mph N/A   Clear
5:15 PM 57.2 °F - 35.6 °F 44% 30.15 in 10.0 mi South 16.1 mph 24.2 mph N/A   Clear
5:35 PM 57.2 °F - 35.6 °F 44% 30.14 in 10.0 mi South 16.1 mph 20.7 mph N/A   Clear
5:55 PM 57.2 °F - 33.8 °F 41% 30.14 in 10.0 mi South 17.3 mph 25.3 mph N/A   Clear
6:15 PM 57.2 °F - 33.8 °F 41% 30.14 in 10.0 mi South 13.8 mph 25.3 mph N/A   Clear
6:35 PM 57.2 °F - 33.8 °F 41% 30.14 in 10.0 mi South 19.6 mph 26.5 mph N/A   Clear
6:55 PM 55.4 °F - 32.0 °F 41% 30.14 in 10.0 mi South 17.3 mph 24.2 mph N/A   Clear
7:15 PM 53.6 °F - 33.8 °F 47% 30.14 in 10.0 mi South 18.4 mph 23.0 mph N/A   Clear
7:35 PM 53.6 °F - 32.0 °F 44% 30.15 in 10.0 mi South 15.0 mph 23.0 mph N/A   Clear
7:55 PM 53.6 °F - 30.2 °F 41% 30.15 in 10.0 mi South 15.0 mph 21.9 mph N/A   Clear
8:15 PM 53.6 °F - 32.0 °F 44% 30.14 in 10.0 mi South 15.0 mph 21.9 mph N/A   Clear
8:35 PM 53.6 °F - 30.2 °F 41% 30.14 in 10.0 mi South 15.0 mph 20.7 mph N/A   Clear
8:55 PM 53.6 °F - 32.0 °F 44% 30.14 in 10.0 mi South 18.4 mph - N/A   Clear
9:15 PM 53.6 °F - 33.8 °F 47% 30.14 in 10.0 mi South 13.8 mph 25.3 mph N/A   Clear
9:35 PM 51.8 °F - 33.8 °F 50% 30.14 in 10.0 mi South 15.0 mph 20.7 mph N/A   Clear
9:55 PM 51.8 °F - 35.6 °F 54% 30.14 in 10.0 mi South 16.1 mph - N/A   Clear
10:15 PM 51.8 °F - 35.6 °F 54% 30.13 in 10.0 mi South 16.1 mph 23.0 mph N/A   Clear
10:35 PM 53.6 °F - 37.4 °F 54% 30.12 in 10.0 mi South 16.1 mph 23.0 mph N/A   Clear
10:55 PM 53.6 °F - 37.4 °F 54% 30.12 in 10.0 mi South 19.6 mph 26.5 mph N/A   Clear
11:15 PM 53.6 °F - 37.4 °F 54% 30.11 in 10.0 mi South 18.4 mph 26.5 mph N/A   Clear
11:35 PM 53.6 °F - 39.2 °F 58% 30.10 in 10.0 mi South 17.3 mph 24.2 mph N/A   Clear
11:55 PM 53.6 °F - 39.2 °F 58% 30.09 in 10.0 mi South 13.8 mph 20.7 mph N/A   Clear